Regional Weather Roundup
Issued by NWS

Home | Current Version | Previous Version | Graphics & Text | Print | Product List | Glossary On
Versions: 1 2 3 4 5 6 7 8 9 10 11 12 13 14 15 16 17 18 19 20 21 22 23 24 25 26 27 28 29 30 31 32 33 34 35 36 37 38 39 40 41 42 43 44 45 46 47 48 49 50
000
ASUS43 KDMX 252301
RWRIA

WEATHER ROUNDUP FOR IOWA
NATIONAL WEATHER SERVICE DES MOINES IA
600 PM CDT TUE APR 25 2017

NOTE: "FAIR" INDICATES FEW OR NO CLOUDS BELOW 12,000 FEET WITH NO
SIGNIFICANT WEATHER AND/OR OBSTRUCTIONS TO VISIBILITY.

* - THESE STATIONS ARE NOT NWS STATIONS...THUS NOT UNDER NWS
QUALITY CONTROL.  THEY ALSO DO NOT REPORT WEATHER SUCH
AS PRECIPITATION OR FOG.

IAZ001>003-012>014-020>022-031>034-043>046-260000-
   NORTHWEST IOWA

CITY           SKY/WX    TMP DP  RH WIND       PRES   REMARKS
CARROLL *      CLOUDY    48  48 100 N20       29.49R
CHEROKEE *     DRIZZLE   43  43 100 N12       29.56S
DENISON *      CLOUDY    48  45  87 NW14      29.54R
LE MARS *      LGT RAIN  43  41  93 N10G17    29.60R
ORANGE CITY *  HVY RAIN  41  41 100 N10G16    29.59R
SHELDON *      MIX PCPN  41  39  93 N14       29.58R
SIOUX CITY     LGT RAIN  43  42  97 NW17      29.59R FOG
SPENCER        LGT RAIN  43  41  93 N14       29.55F
STORM LAKE *   CLOUDY    45  41  87 N21       29.53S
$$

IAZ055>058-069>071-079>083-090>094-260000-
   SOUTHWEST IOWA

CITY           SKY/WX    TMP DP  RH WIND       PRES   REMARKS
ATLANTIC *     CLOUDY    52  46  82 N15G22    29.48R
AUDUBON *      CLOUDY    50  45  81 N13G18    29.49R
CLARINDA *     CLOUDY    59  48  67 N14G23    29.48R
COUNCIL BLFS * CLOUDY    46  46 100 NW18G24   29.51R FOG
CRESTON *      CLOUDY    66  52  59 SW5       29.45R
HARLAN  *      CLOUDY    50  48  93 N15G23    29.53R
LAMONI         CLOUDY    68  54  60 SW7       29.43R
RED OAK *      CLOUDY    54  46  76 N13G18    29.48R
SHENANDOAH *   CLOUDY    55  46  71 N13G21    29.49R
$$

IAZ047>049-059>061-072>074-084-260000-
   CENTRAL IOWA

CITY           SKY/WX    TMP DP  RH WIND       PRES   REMARKS
AMES           CLOUDY    67  52  58 SE7       29.43R
ANKENY *       CLOUDY    70  50  49 SE9       29.43R
BOONE *        CLOUDY    68  48  49 SE9G20    29.43R
CHARITON *     CLOUDY    70  55  60 CALM      29.42R
DES MOINES     CLOUDY    71  50  47 SE6       29.42R
GRINNELL*      CLOUDY    70  45  40 SE7       29.45F
KNOXVILLE *    CLOUDY    72  48  43 SE6       29.41R
MARSHALLTOWN   CLOUDY    70  46  42 SE12      29.43R
NEWTON *       CLOUDY    70  46  43 SE9       29.42S
PELLA *        CLOUDY    72  46  40 SE5       29.43S
PERRY *        CLOUDY    59  47  65 NW10      29.45R
$$

IAZ004>006-015-016-023>025-035-036-260000-
   NORTH CENTRAL IOWA

CITY           SKY/WX    TMP DP  RH WIND       PRES   REMARKS
ALGONA *       CLOUDY    46  46 100 N16       29.52S
CLARION *      CLOUDY    55  54  94 N13       29.48R
ESTHERVILLE    LGT RAIN  43  43 100 N15       29.55R
FORT DODGE *   CLOUDY    52  43  71 N9        29.49S
MASON CITY     CLOUDY    54  51  90 N12       29.49F
WEBSTER CITY * CLOUDY    57  52  82 N14       29.44S
IOWA FALLS *   CLOUDY    69  50  50 NE5       29.46R
$$

IAZ007>011-017>019-026>030-037>042-050>054-066-260000-
   NORTHEAST IOWA

CITY           SKY/WX    TMP DP  RH WIND       PRES   REMARKS
CEDAR RAPIDS   CLOUDY    73  46  38 S9        29.44R
CHARLES CITY * CLOUDY    63  54  72 NE9       29.47F
CLINTON *      MOSUNNY   77  43  29 S16       29.47S
DECORAH *      CLOUDY    68  48  49 E9        29.48F
DUBUQUE        MOSUNNY   72  44  36 SE10      29.48F
MONTICELLO *   CLOUDY    75  45  33 SE8G14    29.45F
OELWEIN *      CLOUDY    72  43  35 SE13      29.47R
WATERLOO       CLOUDY    71  45  39 E9        29.43F
$$

IAZ064-065-067-068-078-260000-
   EAST CENTRAL IOWA

CITY           SKY/WX    TMP DP  RH WIND       PRES   REMARKS
DAVENPORT      MOSUNNY   77  39  25 SE17G26   29.46S
IOWA CITY      CLOUDY    75  48  38 S10       29.45S
MUSCATINE *    CLOUDY    77  45  31 S10G16    29.45R
QUAD CITIES    CLOUDY    77  43  29 SE12      29.44F
$$

IAZ062-063-075>077-085>089-095>099-260000-
   SOUTHEAST IOWA

CITY           SKY/WX    TMP DP  RH WIND       PRES   REMARKS
BURLINGTON     CLOUDY    75  50  41 S10       29.43S
FAIRFIELD *    CLOUDY    73  48  40 SE7       29.42F
FORT MADISON * CLOUDY    75  48  38 S7        29.44R
KEOKUK *       CLOUDY    75  50  41 SE8G16    29.41S
OSKALOOSA *    CLOUDY    73  46  37 SE9       29.42F
OTTUMWA        CLOUDY    73  51  46 SE8       29.41F
WASHINGTON *   CLOUDY    75  48  38 S10       29.45R
$$

ABBREVIATIONS USED IN REMARKS
   TC - TEMPERATURES IN CELSIUS
  WCI - WIND CHILL INDEX
   HX - HEAT INDEX
  VSB - VISIBILITY
$$




USA.gov is the U.S. government's official web portal to all federal, state and local government web resources and services.